Aeroporto :
LOGIN :

Iscrizione | Disclaimer

   EN    FR    IT 

 










Sommario :    VFR   VFR Marginale   IFR   IFR Intensivo   IFR Molto Intensivo
Visibilità : 
Base nubi : 
>= 8 km
>= 3000ft
5 / 8 km
1000 / 3000 ft
1500m / 5 km
500 / 1000 ft
800 / 1500m
200 / 500 ft
< 800m
< 200 ft
Simboli :   Temporali  Nebbia  Neve Forte  Precipitazioni Forti  Vento > 20 kt
SIGMETs :   Varie  Temporali  Ghiacco  Turbolenza  Onda orograficha  Ceneri Vulcaniche






- Altitudine del aeroporto : 794 ft


LKCV - Čáslav Air Base

ULTIMO METAR :
  • 030130Z 26003KT 240V300 CAVOK 04/M05 Q1008 NOSIG RMK BLU BLU

METARs OBSOLETI :
  • 030100Z VRB01KT CAVOK 02/M05 Q1008 NOSIG
  • 030000Z 21004KT 180V240 CAVOK 03/M05 Q1008 NOSIG
  • 022330Z VRB01KT CAVOK 04/M05 Q1008 NOSIG RMK BLU BLU
  • 022300Z 22008KT CAVOK 04/M05 Q1008 NOSIG RMK BLU BLU

TAF TAF LKCV
Valido dal 03 a 00 ore il 04 a 00 ore UTC


022300Z 0300/0400 22006KT CAVOK
BECMG 0301/0303 27008KT
BECMG 0306/0308 BKN030
PROB40
TEMPO 0310/0316 30014KT 7000 SHRA BKN020



MetMap, La meteo Aeronautica in un colpo d'occhio ! - Copyright ORBIFLY Dicembre 2007 - Disclaimer

ORBIFLY MET'MAP TEAM :

Programmazione e sviluppo : Alexandra Zaïnal
Concezione : Baudouin d'Aumeries
Aiuto per la programmazione : Marc-Olivier Méhu
Supporto tecnico e logistico : Manuel Goepfert
Aiuto per la traduzione : Arnaldo La Scala

Contatto : metmap@orbifly.com




FONTI E CREDITI :

   NOAA